星链-35323(STARLINK-35323)

导读

STARLINK-35323是由美国发射的星链卫星,于2025年10月19日成功送入太空,隶属于SpaceX公司打造的星链卫星互联网星座。星链项目旨在为全球用户提供高速低延迟的互联网接入服务,尤其覆盖偏远地区,该卫星的发射进一步扩充了星链星座的在轨规模,推动全球卫星互联网组网进程。

Basic Information
目录编号:
66071
目录名称:
STARLINK-35323
国际标识:
2025-235P
轨道中心:
EARTH
卫星名称:
星链-35323
卫星全名:
星链-35323(STARLINK-35323)
卫星状态:
在轨 (已飞行237 天)
发射日期:
2025-10-19 UTC
国别 :
美国 (US)
星等 :
--
Orbit Information
数据来源 国际轨道数据 AOE轨道数据
星历时间 2026-06-13T15:11:09+0800
6小时前
查看轨道信息
2026-06-12T05:00:00+0800
1天前
查看轨道信息
半长轴 6853.352km 6853.338km
偏心率 0.0001374 0.0001362
轨道倾角 53.158° 53.158°
近地点辐角 92.589° 73.971°
升交点赤经 160.892° 167.508°
平近点角 267.526° 355.121°
近地点 474.273km 474.267km
远地点 476.157km 476.135km
周期 94.105分钟 94.105分钟
每日圈数 15.302003 15.30205
Detailed Information
固有亮度:
5
最大亮度:
2.5
卫星平台:
Starlink V1.0
覆盖范围:
全球
运营商:
太空探索技术公司
运营商所在国:
美国
制造商(研发单位):
太空探索技术公司
制造商所在国:
美国
使用方式:
暂无
Satellite Introduction
Starlink 计划是 SpaceX 推出的全球卫星互联网项目,通过发射低轨道卫星,为全球尤其是偏远地区提供高速、低延迟的互联网服务。自 2019 年起,Starlink 已部署数千颗卫星,旨在缩小全球数字鸿沟,推动互联网普及。该项目还为军事、航空等行业提供通信支持,带来广泛经济效益。
2D Orbit Map
3D Orbit Map
Orbit Altitude Analysis Chart
Orbit Inclination Analysis Chart
Orbit Comprehensive Analysis Chart
View Comprehensive Chart